User: anonymous   Login
Location: Eferding
(48.3167°N, 14.0167°E)
Time: 14:18:23
(UTC+00:00)
Language:

Cosmos 1743 Rocket - Orbit

View from above orbital plane
View from above orbital plane
View from above satellite
View from above satellite

Ground track
Ground track

The orbit data is extracted from the following two-line orbital elements,

1 16720U 86034B   20024.53685903  .00000070  00000-0  55408-5 0  9998
2 16720  82.5528  74.4846 0019669 198.5993 273.2721 14.83383837820299
Epoch (UTC): 24 January 2020 12:53:04
Eccentricity: 0.0019669
inclination: 82.5528°
perigee height: 605 km
apogee height: 632 km
right ascension of ascending node: 74.4846°
argument of perigee: 198.5993°
revolutions per day: 14.83383837
mean anomaly at epoch: 273.2721°
orbit number at epoch: 82029

The dashed part of the orbit path shows where the satellite is in the earth's shadow,  

DLR